Wind_Speed
32 33 32 33 29 25 26 28 26 24 23 25 28 37 28 17 15 22 28 21 26 26 28 28 28 29 29 26 27 24 27 27 23 20 20 21 19 21 21 21 23 22 18
33 37 36 35 35 31 31 31 31 31 28 27 30 31 31 23 19 18 27 25 23 28 31 29 30 31 29 31 26 26 27 27 24 23 23 20 20 21 22 18 24 23 20
43 40 36 36 36 35 32 33 32 34 33 32 31 31 27 25 23 26 28 27 20 26 32 31 30 33 31 32 29 27 27 29 28 28 29 26 23 24 22 23 19 19 20
44 45 43 41 39 37 35 34 35 37 36 37 36 34 33 31 32 29 32 25 22 29 30 30 29 29 34 35 36 32 29 28 28 28 26 24 24 24 23 20 21 23 20
46 46 46 45 44 43 44 44 43 41 40 39 39 38 36 34 37 34 31 31 27 23 28 31 33 29 34 35 40 37 31 28 30 28 29 25 24 23 23 22 20 21 19
49 49 48 47 47 48 49 46 48 48 46 43 43 42 41 40 40 38 34 32 31 28 27 31 35 28 35 38 40 42 36 32 32 32 32 26 29 27 26 23 23 20 21
48 46 46 48 48 49 50 49 48 48 48 45 44 45 43 43 41 41 37 37 34 31 29 35 38 35 39 41 38 37 37 34 33 34 33 33 29 27 27 24 24 26 24
44 40 36 38 43 46 45 43 43 42 41 41 42 46 47 45 44 41 39 38 36 32 32 31 36 37 40 40 37 35 40 38 34 33 33 33 32 30 29 26 27 27 26
41 41 42 39 39 43 46 45 43 42 40 38 38 39 44 48 48 43 41 37 37 33 31 30 39 44 47 46 37 43 45 40 40 36 38 38 34 31 29 28 29 28 27
44 44 44 44 44 40 39 40 39 37 35 33 33 37 40 41 47 47 43 38 37 34 31 29 35 36 49 49 51 31 42 42 43 39 43 37 35 35 34 32 33 30 29
46 42 41 40 39 40 38 38 38 38 37 36 35 36 39 40 42 46 46 41 38 36 32 27 28 38 37 44 38 41 43 36 46 44 36 40 39 35 35 36 35 33 31
48 47 46 45 44 43 40 41 43 46 46 44 41 41 41 41 39 38 41 44 41 40 34 33 30 33 33 17 34 35 49 48 42 40 42 42 42 44 44 43 39 34 34
43 44 45 46 48 47 46 46 48 49 51 51 46 45 45 44 44 41 38 36 43 41 37 34 35 31 34 41 30 29 33 44 44 44 40 41 43 46 45 45 42 37 40
32 36 41 44 45 45 45 43 43 45 50 51 50 47 45 46 45 47 45 40 37 43 43 42 38 34 29 30 28 22 29 43 52 46 45 42 44 48 46 45 44 38 38
28 32 37 41 42 42 42 42 44 43 42 44 47 46 45 45 45 48 44 41 39 38 44 45 45 41 34 31 28 27 26 32 32 36 38 40 34 43 49 48 45 44 36
33 34 35 37 38 39 41 43 43 42 39 41 40 44 45 42 43 47 48 45 42 40 40 44 45 46 42 35 36 37 31 30 29 29 31 36 35 35 41 47 46 42 40
40 40 38 42 40 37 35 35 32 36 40 41 40 41 40 41 41 44 45 44 45 43 40 42 42 43 45 44 39 41 38 34 31 30 34 35 42 41 44 47 46 42 42
44 41 38 33 33 33 32 26 23 30 32 33 36 39 40 39 40 38 39 41 40 43 42 43 41 40 45 46 45 42 43 41 40 38 35 30 31 40 45 45 42 43 42
41 41 43 37 34 26 23 21 23 24 26 29 30 34 33 35 36 37 33 35 40 40 43 45 42 40 43 47 49 48 44 46 46 43 41 38 34 34 33 36 39 39 42
41 38 35 24 13 14 15 14 16 20 25 23 21 30 33 32 31 31 35 37 39 41 41 45 45 41 41 42 47 53 49 47 46 43 44 45 44 39 35 36 37 37 40
40 32 27 19 6 9 10 11 10 9 12 19 21 23 25 27 29 29 31 33 35 38 41 42 45 45 42 42 41 45 51 49 49 46 45 46 47 43 42 40 38 41 45
34 33 24 15 10 6 7 9 11 10 9 11 14 17 19 21 24 26 29 32 36 37 41 44 44 45 47 46 45 43 44 51 53 51 50 50 50 46 43 40 42 42 40
35 27 22 16 11 13 14 14 14 13 16 17 19 22 22 24 25 25 26 29 32 35 39 45 48 49 48 48 50 49 47 44 50 56 56 53 51 50 46 44 46 44 41
32 25 22 20 16 12 14 16 14 16 16 17 16 17 17 17 18 19 22 24 25 27 32 40 45 49 49 47 49 53 51 48 47 54 60 57 54 50 49 46 46 45 42
30 28 25 20 21 21 14 16 15 13 12 12 15 15 13 15 18 18 19 22 23 23 24 26 30 35 38 41 44 47 50 52 50 51 55 59 58 53 48 46 47 46 42
33 28 24 22 25 22 17 15 14 14 13 10 15 11 18 20 17 19 21 22 24 24 24 24 26 30 35 40 42 44 48 51 52 52 55 57 55 55 52 50 49 50 49
Wind_Direction
296 318 312 308 304 295 289 289 287 286 283 283 285 291 305 248 231 244 252 240 239 243 233 222 224 225 227 226 229 232 226 224 225 223 229 226 231 238 244 255 249 252 252
284 297 306 301 293 290 284 278 277 280 275 274 276 294 302 302 250 240 268 261 244 244 251 239 225 232 231 228 228 227 222 223 220 223 227 234 235 237 244 253 242 243 249
296 298 296 291 288 282 279 279 277 273 274 275 275 278 283 284 266 258 268 274 275 251 249 247 223 227 229 230 227 225 223 225 225 225 234 238 239 235 249 255 237 237 240
297 295 291 286 281 279 277 270 270 273 271 273 272 272 270 267 269 267 270 280 286 270 254 252 241 239 231 229 228 224 224 227 229 233 234 233 231 230 243 246 233 237 240
291 288 285 282 279 278 273 272 269 266 266 265 267 268 267 267 265 270 270 277 271 277 269 257 247 245 242 235 231 225 227 226 224 227 231 228 226 237 233 239 237 231 230
290 287 282 278 276 274 272 270 267 267 264 261 259 261 265 265 267 270 270 270 270 273 263 262 252 245 236 241 230 225 226 227 226 224 228 223 234 236 232 230 235 238 236
282 281 280 279 275 272 271 271 271 270 268 264 260 260 260 263 263 265 266 266 265 266 267 259 255 236 247 247 236 227 225 226 229 223 225 229 224 229 233 229 232 234 239
289 284 277 269 270 273 273 272 271 270 269 269 264 258 257 258 260 260 263 261 263 265 264 256 232 240 246 243 236 234 229 226 227 223 223 226 225 225 237 235 236 240 243
282 281 280 276 270 269 268 268 266 266 266 265 265 264 261 259 258 254 257 260 261 256 266 264 252 249 237 237 226 226 228 228 227 228 221 226 226 229 234 237 237 242 246
286 285 284 281 275 270 265 263 263 262 263 265 266 265 262 260 260 260 254 251 254 254 251 263 261 237 242 224 236 236 228 225 232 232 224 226 227 229 230 233 236 240 245
284 281 280 280 278 274 268 259 256 258 260 263 265 265 265 262 258 256 255 250 248 248 248 253 259 272 274 248 237 232 236 232 221 229 229 228 232 234 235 235 237 239 244
278 277 278 279 278 276 272 267 260 257 257 258 265 272 265 260 261 259 258 254 244 244 246 246 242 247 259 269 250 238 241 242 234 232 236 232 234 233 230 233 238 240 245
277 277 278 277 277 273 270 267 264 262 263 263 263 264 262 257 255 259 260 256 246 236 239 242 246 242 247 261 264 254 233 237 238 239 235 235 236 236 234 230 239 242 240
279 271 271 274 276 274 269 268 268 264 258 259 260 259 255 254 255 254 256 256 250 239 235 236 239 243 241 247 250 260 235 228 230 234 234 238 238 240 233 238 241 238 244
303 290 283 280 278 274 269 268 272 269 260 257 253 254 253 252 250 251 250 249 249 245 237 236 237 238 237 236 236 238 239 219 213 220 230 227 231 240 231 235 240 243 244
314 300 293 287 280 275 272 270 266 265 260 260 256 248 249 249 250 250 249 246 245 243 239 235 236 235 234 231 231 229 236 238 234 232 224 225 225 233 228 236 237 241 244
316 313 309 292 280 278 271 270 263 261 255 261 255 251 249 251 251 251 247 246 245 241 238 237 238 233 233 233 228 235 232 233 239 240 225 233 230 226 230 237 241 241 244
323 319 310 304 305 280 270 267 269 263 263 263 254 250 251 250 248 248 247 246 244 241 236 236 237 232 228 228 230 229 235 234 235 234 239 235 232 232 236 236 238 238 239
326 324 315 300 297 283 272 261 270 264 255 259 259 253 245 248 247 244 247 246 241 240 238 236 236 235 229 227 229 229 229 235 237 237 239 240 241 234 233 235 239 242 242
338 337 331 315 279 267 278 263 270 269 260 256 257 244 243 248 251 249 248 246 242 243 238 234 235 235 231 229 228 228 227 229 234 237 237 239 241 240 240 233 235 238 240
340 342 346 351 284 256 278 273 276 277 257 252 253 251 250 250 250 249 247 242 242 241 238 234 235 233 233 229 231 233 232 233 235 234 238 239 241 240 237 242 245 243 246
336 344 348 342 307 260 299 279 272 273 265 265 260 257 257 259 260 258 254 251 248 244 241 237 234 234 234 234 233 232 232 231 233 237 238 237 240 241 240 238 243 247 250
341 339 352 357 337 292 273 281 277 274 262 271 273 260 272 263 268 259 258 258 254 251 247 241 235 233 234 234 235 237 236 237 235 233 237 239 240 241 241 240 242 246 251
356 350 350 3 359 326 297 292 288 279 269 268 265 274 273 264 265 266 267 263 261 262 256 245 238 236 234 234 234 236 240 241 241 236 235 238 241 242 242 243 242 244 249
353 353 350 336 334 336 324 317 295 281 273 278 270 267 266 273 272 264 263 264 260 254 249 246 239 231 229 232 233 233 237 243 241 240 236 237 239 240 240 243 246 245 249
356 350 344 346 340 330 320 308 297 286 282 268 282 269 293 262 261 260 258 261 259 252 248 243 242 238 232 232 233 237 240 241 243 241 238 236 237 239 242 243 243 246 247
Height
5880 5876 5870 5868 5870 5871 5871 5868 5866 5864 5862 5858 5853 5850 5847 5851 5854 5855 5852 5850 5855 5858 5860 5861 5863 5864 5866 5869 5872 5874 5877 5878 5882 5884 5888 5890 5890 5891 5891 5893 5894 5895 5897
5870 5871 5870 5864 5861 5862 5863 5861 5858 5857 5855 5852 5849 5847 5847 5847 5849 5848 5848 5845 5847 5849 5850 5852 5854 5857 5861 5864 5866 5868 5871 5872 5877 5879 5881 5882 5884 5885 5886 5888 5888 5890 5892
5861 5862 5861 5858 5855 5853 5854 5851 5851 5848 5845 5844 5844 5842 5841 5841 5844 5844 5842 5840 5840 5842 5845 5846 5845 5847 5853 5857 5860 5862 5863 5866 5868 5871 5873 5876 5878 5880 5880 5882 5882 5885 5887
5849 5847 5846 5845 5844 5842 5841 5841 5839 5836 5836 5835 5835 5835 5835 5836 5836 5834 5834 5835 5835 5837 5838 5839 5839 5840 5844 5848 5851 5855 5856 5858 5861 5864 5867 5868 5871 5874 5875 5877 5878 5880 5881
5839 5836 5833 5832 5830 5828 5826 5826 5826 5824 5823 5824 5824 5824 5825 5828 5826 5828 5828 5827 5828 5829 5831 5832 5832 5833 5835 5839 5842 5846 5849 5851 5854 5856 5859 5862 5864 5867 5870 5872 5873 5876 5876
5823 5819 5818 5816 5815 5812 5810 5810 5811 5810 5809 5810 5811 5812 5814 5815 5815 5817 5819 5819 5820 5821 5821 5822 5823 5824 5825 5828 5832 5836 5840 5845 5847 5849 5852 5855 5858 5861 5864 5867 5868 5871 5873
5815 5809 5803 5800 5798 5797 5796 5795 5794 5794 5794 5796 5798 5798 5801 5802 5804 5806 5809 5810 5812 5812 5813 5813 5813 5815 5817 5819 5816 5826 5831 5836 5841 5842 5845 5849 5852 5854 5858 5861 5863 5866 5868
5794 5793 5792 5790 5787 5784 5783 5783 5782 5781 5782 5782 5783 5785 5788 5789 5790 5795 5798 5800 5802 5804 5804 5803 5804 5806 5808 5811 5812 5816 5822 5827 5832 5835 5839 5842 5844 5846 5851 5854 5857 5859 5861
5779 5778 5775 5776 5776 5773 5771 5769 5769 5769 5769 5770 5771 5772 5774 5777 5777 5781 5785 5788 5791 5794 5795 5794 5795 5795 5799 5802 5805 5800 5809 5816 5822 5825 5828 5833 5837 5841 5844 5847 5850 5852 5854
5766 5763 5761 5759 5758 5758 5757 5757 5757 5757 5757 5758 5759 5760 5761 5764 5765 5769 5773 5777 5781 5783 5786 5786 5784 5781 5786 5791 5793 5793 5800 5808 5813 5816 5817 5823 5828 5833 5836 5840 5840 5844 5847
5750 5748 5746 5746 5745 5745 5745 5745 5746 5746 5746 5747 5748 5749 5749 5750 5752 5755 5759 5765 5770 5773 5775 5777 5775 5773 5773 5776 5781 5785 5791 5793 5799 5806 5811 5815 5820 5826 5829 5832 5832 5834 5837
5735 5734 5733 5732 5731 5731 5731 5732 5732 5732 5732 5734 5736 5737 5738 5739 5739 5742 5746 5750 5757 5760 5765 5767 5769 5770 5768 5770 5772 5775 5782 5788 5792 5796 5800 5805 5810 5815 5818 5820 5823 5826 5828
5718 5719 5719 5717 5715 5714 5714 5714 5715 5716 5716 5717 5721 5723 5724 5725 5727 5730 5733 5737 5742 5747 5752 5756 5756 5761 5763 5767 5768 5768 5772 5777 5782 5787 5792 5796 5800 5803 5806 5811 5814 5818 5820
5704 5702 5701 5699 5698 5696 5696 5697 5697 5698 5699 5700 5703 5706 5709 5711 5713 5716 5721 5724 5728 5734 5738 5742 5745 5749 5754 5757 5761 5762 5763 5766 5771 5776 5782 5786 5789 5793 5798 5801 5804 5807 5810
5695 5693 5690 5687 5684 5682 5680 5680 5680 5681 5682 5684 5687 5690 5693 5696 5699 5702 5707 5712 5714 5719 5724 5728 5732 5737 5743 5747 5750 5753 5753 5757 5761 5766 5771 5776 5780 5782 5787 5790 5795 5797 5802
5689 5683 5678 5673 5669 5666 5664 5664 5664 5665 5667 5668 5671 5674 5678 5682 5685 5688 5693 5698 5702 5706 5710 5713 5718 5724 5730 5734 5738 5743 5746 5748 5753 5757 5761 5765 5766 5771 5775 5779 5784 5788 5794
5678 5671 5664 5658 5654 5651 5650 5650 5651 5650 5653 5655 5657 5660 5664 5668 5671 5674 5677 5683 5687 5693 5698 5700 5705 5710 5716 5721 5727 5731 5735 5739 5743 5747 5751 5754 5758 5759 5763 5768 5773 5778 5783
5666 5658 5651 5646 5641 5637 5636 5638 5638 5639 5639 5640 5643 5646 5650 5654 5657 5661 5665 5669 5675 5679 5684 5688 5692 5697 5702 5708 5714 5719 5724 5728 5733 5736 5739 5743 5747 5750 5754 5760 5762 5766 5771
5656 5646 5637 5631 5629 5626 5626 5627 5628 5628 5629 5630 5631 5633 5638 5642 5646 5650 5654 5657 5662 5667 5671 5675 5680 5685 5690 5694 5700 5707 5712 5716 5721 5726 5730 5734 5738 5741 5745 5749 5752 5756 5759
5647 5637 5625 5616 5617 5620 5620 5621 5621 5620 5620 5622 5623 5624 5627 5631 5635 5638 5641 5645 5650 5653 5658 5663 5667 5672 5677 5682 5686 5692 5699 5704 5709 5714 5719 5723 5726 5731 5734 5737 5741 5745 5748
5642 5633 5624 5618 5615 5616 5617 5617 5617 5616 5615 5616 5617 5618 5620 5623 5625 5627 5629 5633 5637 5641 5645 5650 5656 5661 5665 5669 5673 5678 5685 5691 5696 5701 5705 5709 5713 5719 5722 5727 5730 5734 5736
5639 5632 5624 5619 5617 5615 5615 5614 5613 5613 5613 5613 5613 5613 5614 5616 5617 5619 5621 5623 5625 5629 5633 5637 5642 5647 5652 5657 5661 5665 5671 5677 5683 5688 5693 5697 5701 5705 5710 5715 5719 5722 5724
5636 5630 5623 5619 5616 5615 5614 5612 5610 5609 5609 5609 5608 5608 5609 5610 5611 5611 5612 5613 5614 5617 5619 5623 5628 5633 5638 5644 5649 5653 5658 5664 5669 5672 5677 5681 5687 5694 5699 5703 5706 5708 5712
5634 5628 5623 5619 5616 5613 5611 5608 5605 5604 5603 5603 5603 5603 5603 5603 5603 5603 5605 5606 5606 5607 5608 5610 5614 5620 5624 5630 5635 5640 5645 5650 5654 5658 5663 5669 5674 5680 5686 5690 5694 5696 5699
5633 5628 5623 5620 5615 5611 5607 5604 5602 5599 5598 5598 5598 5598 5597 5597 5598 5597 5598 5599 5599 5599 5599 5601 5604 5608 5614 5618 5622 5627 5632 5636 5641 5645 5648 5654 5660 5667 5671 5676 5679 5682 5685
5634 5628 5622 5617 5612 5607 5603 5600 5598 5596 5594 5593 5593 5593 5592 5592 5592 5593 5594 5594 5593 5593 5593 5594 5596 5598 5603 5607 5610 5614 5619 5623 5627 5631 5635 5639 5645 5652 5657 5661 5666 5669 5672